| time (UTC) | temp C | wind direction | speed KPH | gust KPH | rain 1hr cm | rain 24hr cm | rain mn cm | humidity % | barometer mb |
| 20260904032420 | 26 | 155 | 4.8 | 11.3 | 0.00 | 0.00 | 0.00 | 82 | 1008.1 |
| 20260904032411 | 26 | 126 | 4.8 | 11.3 | 0.00 | 0.00 | 0.00 | 82 | 1008.1 |
| 20260904031417 | 26 | 161 | 4.8 | 11.3 | 0.00 | 0.00 | 0.00 | 82 | 1008.2 |
| 20260904030917 | 26 | 153 | 3.2 | 11.3 | 0.00 | 0.00 | 0.00 | 81 | 1008.2 |
| 20260904030641 | 26 | 166 | 3.2 | 11.3 | 0.00 | 0.00 | 0.00 | 81 | 1008.2 |
| 20260904030403 | 26 | 127 | 1.6 | 6.4 | 0.00 | 0.00 | 0.00 | 81 | 1008.2 |
| 20260904025643 | 26 | 131 | 3.2 | 6.4 | 0.00 | 0.00 | 0.00 | 80 | 1008.3 |
| 20260904024915 | 26 | 151 | 1.6 | 9.7 | 0.00 | 0.00 | 0.00 | 80 | 1008.3 |
| 20260904024414 | 26 | 69 | 3.2 | 9.7 | 0.00 | 0.00 | 0.00 | 80 | 1008.3 |
| 20260904023914 | 26 | 90 | 3.2 | 11.3 | 0.00 | 0.00 | 0.00 | 79 | 1008.3 |
| 20260904023414 | 26 | 85 | 3.2 | 11.3 | 0.00 | 0.00 | 0.00 | 79 | 1008.3 |
| 20260904022917 | 26 | 126 | 3.2 | 4.8 | 0.00 | 0.00 | 0.00 | 79 | 1008.2 |
| 20260904022412 | 26 | 92 | 3.2 | 8.0 | 0.00 | 0.00 | 0.00 | 78 | 1008.2 |
| 20260904021911 | 26 | 94 | 1.6 | 8.0 | 0.00 | 0.00 | 0.00 | 78 | 1008.3 |
| 20260904021622 | 26 | 145 | 1.6 | 6.4 | 0.00 | 0.00 | 0.00 | 77 | 1008.2 |
| 20260904021128 | 26 | 188 | 1.6 | 6.4 | 0.00 | 0.00 | 0.00 | 77 | 1008.3 |
| 20260904020358 | 26 | 124 | 1.6 | 6.4 | 0.00 | 0.00 | 0.00 | 77 | 1008.2 |
| 20260904015900 | 27 | 133 | 1.6 | 6.4 | 0.00 | 0.00 | 0.00 | 76 | 1008.2 |
| 20260904015359 | 27 | 150 | 1.6 | 6.4 | 0.00 | 0.00 | 0.00 | 76 | 1008.3 |
| 20260904014858 | 27 | 74 | 1.6 | 8.0 | 0.00 | 0.00 | 0.00 | 76 | 1008.3 |
| 20260904014358 | 27 | 74 | 1.6 | 9.7 | 0.00 | 0.00 | 0.00 | 75 | 1008.3 |
| 20260904013858 | 27 | 74 | 1.6 | 9.7 | 0.00 | 0.00 | 0.00 | 75 | 1008.2 |
| 20260904013356 | 27 | 119 | 1.6 | 8.0 | 0.00 | 0.00 | 0.00 | 74 | 1008.0 |
| 20260904013122 | 27 | 164 | 3.2 | 8.0 | 0.00 | 0.00 | 0.00 | 74 | 1007.9 |
| 20260904012354 | 27 | 138 | 3.2 | 8.0 | 0.00 | 0.00 | 0.00 | 74 | 1007.8 |
| 20260904012111 | 27 | 150 | 4.8 | 11.3 | 0.00 | 0.00 | 0.00 | 73 | 1007.8 |
| 20260904011352 | 27 | 154 | 3.2 | 11.3 | 0.00 | 0.00 | 0.00 | 72 | 1007.7 |
| 20260904010852 | 27 | 165 | 3.2 | 11.3 | 0.00 | 0.00 | 0.00 | 72 | 1007.6 |
| 20260904010350 | 27 | 152 | 4.8 | 19.3 | 0.00 | 0.00 | 0.00 | 71 | 1007.7 |
| 20260904005851 | 28 | 159 | 6.4 | 19.3 | 0.00 | 0.00 | 0.00 | 71 | 1007.6 |
| 20260904005351 | 28 | 135 | 4.8 | 11.3 | 0.00 | 0.00 | 0.00 | 71 | 1007.6 |
| 20260904004851 | 28 | 153 | 4.8 | 11.3 | 0.00 | 0.00 | 0.00 | 70 | 1007.6 |
| 20260904004617 | 28 | 161 | 4.8 | 12.9 | 0.00 | 0.00 | 0.00 | 69 | 1007.5 |
| 20260904003852 | 28 | 149 | 4.8 | 14.5 | 0.00 | 0.00 | 0.00 | 69 | 1007.6 |
| 20260904003608 | 28 | 135 | 6.4 | 14.5 | 0.00 | 0.00 | 0.00 | 68 | 1007.6 |
| 20260904002849 | 28 | 142 | 4.8 | 12.9 | 0.00 | 0.00 | 0.00 | 68 | 1007.6 |
| 20260904002611 | 28 | 121 | 4.8 | 12.9 | 0.00 | 0.00 | 0.00 | 67 | 1007.6 |
| 20260904001850 | 29 | 152 | 4.8 | 12.9 | 0.00 | 0.00 | 0.00 | 67 | 1007.7 |
| 20260904001349 | 29 | 144 | 3.2 | 8.0 | 0.00 | 0.00 | 0.00 | 66 | 1007.7 |
| 20260904000846 | 29 | 151 | 3.2 | 16.1 | 0.00 | 0.00 | 0.00 | 66 | 1007.7 |
| 20260904000348 | 29 | 144 | 4.8 | 16.1 | 0.00 | 0.00 | 0.00 | 66 | 1007.7 |
| 20260904000115 | 29 | 150 | 4.8 | 17.7 | 0.00 | 0.00 | 0.00 | 66 | 1007.7 |
| 20260903235346 | 29 | 158 | 4.8 | 17.7 | 0.00 | 0.00 | 0.00 | 65 | 1007.7 |
| 20260903234847 | 30 | 148 | 4.8 | 16.1 | 0.00 | 0.00 | 0.00 | 65 | 1007.7 |
| 20260903234341 | 30 | 115 | 6.4 | 17.7 | 0.00 | 0.00 | 0.00 | 64 | 1007.6 |
| 20260903233836 | 30 | 113 | 6.4 | 17.7 | 0.00 | 0.00 | 0.00 | 64 | 1007.7 |
| 20260903233335 | 30 | 194 | 6.4 | 17.7 | 0.00 | 0.00 | 0.00 | 64 | 1007.5 |
| 20260903233059 | 30 | 174 | 8.0 | 19.3 | 0.00 | 0.00 | 0.00 | 64 | 1007.4 |
| 20260903232335 | 30 | 150 | 6.4 | 19.3 | 0.00 | 0.00 | 0.00 | 63 | 1007.3 |
| 20260903231835 | 30 | 278 | 4.8 | 20.9 | 0.00 | 0.00 | 0.00 | 63 | 1007.3 |
| 20260903231604 | 30 | 214 | 4.8 | 20.9 | 0.00 | 0.00 | 0.00 | 63 | 1007.1 |
| 20260903230836 | 30 | 160 | 6.4 | 12.9 | 0.00 | 0.00 | 0.00 | 63 | 1007.0 |
| 20260903230335 | 30 | 193 | 6.4 | 14.5 | 0.00 | 0.00 | 0.00 | 63 | 1007.1 |
| 20260903225833 | 30 | 134 | 6.4 | 14.5 | 0.00 | 0.00 | 0.00 | 63 | 1006.9 |
| 20260903225551 | 30 | 151 | 6.4 | 24.1 | 0.00 | 0.00 | 0.00 | 63 | 1007.0 |
| 20260903224833 | 30 | 158 | 6.4 | 24.1 | 0.00 | 0.00 | 0.00 | 63 | 1007.0 |
| 20260903224553 | 30 | 135 | 8.0 | 17.7 | 0.00 | 0.00 | 0.00 | 63 | 1007.1 |
| 20260903223835 | 30 | 146 | 6.4 | 17.7 | 0.00 | 0.00 | 0.00 | 63 | 1007.0 |
| 20260903223550 | 30 | 176 | 4.8 | 12.9 | 0.00 | 0.00 | 0.00 | 63 | 1007.1 |
| 20260903223106 | 30 | 149 | 4.8 | 11.3 | 0.00 | 0.00 | 0.00 | 64 | 1007.1 |
| 20260903222333 | 30 | 97 | 6.4 | 20.9 | 0.00 | 0.00 | 0.00 | 63 | 1007.2 |
| 20260903221833 | 30 | 157 | 6.4 | 20.9 | 0.00 | 0.00 | 0.00 | 64 | 1007.1 |
| 20260903221333 | 30 | 63 | 6.4 | 17.7 | 0.00 | 0.00 | 0.00 | 63 | 1007.2 |
| 20260903220834 | 30 | 164 | 6.4 | 17.7 | 0.00 | 0.00 | 0.00 | 63 | 1007.2 |
| 20260903220334 | 30 | 182 | 6.4 | 19.3 | 0.00 | 0.00 | 0.00 | 63 | 1007.3 |
| 20260903215836 | 30 | 154 | 9.7 | 19.3 | 0.00 | 0.00 | 0.00 | 62 | 1007.1 |
| 20260903215333 | 30 | 167 | 8.0 | 17.7 | 0.00 | 0.00 | 0.00 | 63 | 1007.1 |
| 20260903214833 | 30 | 141 | 6.4 | 16.1 | 0.00 | 0.00 | 0.00 | 64 | 1007.1 |
| 20260903214335 | 29 | 139 | 8.0 | 19.3 | 0.00 | 0.00 | 0.00 | 65 | 1007.2 |
| 20260903213834 | 29 | 134 | 8.0 | 19.3 | 0.00 | 0.00 | 0.00 | 65 | 1007.3 |
| 20260903213335 | 29 | 142 | 8.0 | 16.1 | 0.00 | 0.00 | 0.00 | 66 | 1007.4 |
| 20260903212833 | 29 | 169 | 4.8 | 16.1 | 0.00 | 0.00 | 0.00 | 67 | 1007.6 |
| 20260903212333 | 29 | 140 | 4.8 | 12.9 | 0.00 | 0.00 | 0.00 | 67 | 1007.6 |
| 20260903211831 | 29 | 139 | 4.8 | 12.9 | 0.00 | 0.00 | 0.00 | 70 | 1007.6 |
| 20260903211329 | 28 | 122 | 6.4 | 17.7 | 0.00 | 0.00 | 0.00 | 69 | 1007.5 |
| 20260903210828 | 29 | 128 | 8.0 | 22.5 | 0.00 | 0.00 | 0.00 | 64 | 1007.4 |
| 20260903210326 | 30 | 160 | 6.4 | 22.5 | 0.00 | 0.00 | 0.00 | 60 | 1007.2 |
| 20260903205827 | 30 | 130 | 4.8 | 17.7 | 0.00 | 0.00 | 0.00 | 58 | 1007.7 |
| 20260903205325 | 30 | 179 | 6.4 | 17.7 | 0.00 | 0.00 | 0.00 | 59 | 1008.0 |
| 20260903205049 | 30 | 139 | 8.0 | 19.3 | 0.00 | 0.00 | 0.00 | 59 | 1008.0 |
| 20260903204326 | 30 | 161 | 8.0 | 19.3 | 0.00 | 0.00 | 0.00 | 58 | 1007.9 |
| 20260903204039 | 30 | 131 | 4.8 | 17.7 | 0.00 | 0.00 | 0.00 | 58 | 1007.9 |
| 20260903203924 | 30 | 184 | 6.4 | 17.7 | 0.00 | 0.00 | 0.00 | 59 | 1007.9 |
| 20260903202825 | 30 | 141 | 4.8 | 14.5 | 0.00 | 0.00 | 0.00 | 60 | 1007.8 |
| 20260903202325 | 30 | 154 | 6.4 | 16.1 | 0.00 | 0.00 | 0.00 | 68 | 1007.8 |
| 20260903201825 | 30 | 78 | 8.0 | 16.1 | 0.00 | 0.00 | 0.00 | 68 | 1007.7 |
| 20260903201325 | 30 | 141 | 6.4 | 17.7 | 0.00 | 0.00 | 0.00 | 68 | 1007.7 |
| 20260903201044 | 30 | 188 | 4.8 | 17.7 | 0.00 | 0.00 | 0.00 | 69 | 1007.8 |
| 20260903200323 | 30 | 160 | 4.8 | 12.9 | 0.00 | 0.00 | 0.00 | 70 | 1007.8 |
| 20260903195824 | 29 | 173 | 4.8 | 14.5 | 0.00 | 0.00 | 0.00 | 70 | 1007.8 |
| 20260903195554 | 28 | 71 | 4.8 | 14.5 | 0.00 | 0.00 | 0.00 | 74 | 1007.9 |
| 20260903194823 | 28 | 119 | 3.2 | 11.3 | 0.00 | 0.00 | 0.00 | 74 | 1008.3 |
| 20260903194811 | 27 | 153 | 4.8 | 11.3 | 0.00 | 0.00 | 0.00 | 77 | 1008.5 |
| 20260903193823 | 26 | 187 | 6.4 | 12.9 | 0.00 | 0.00 | 0.00 | 79 | 1008.4 |
| 20260903193323 | 26 | 136 | 6.4 | 12.9 | 0.00 | 0.00 | 0.00 | 80 | 1008.3 |
| 20260903192824 | 26 | 140 | 6.4 | 14.5 | 0.00 | 0.00 | 0.00 | 80 | 1008.3 |
| 20260903192324 | 26 | 166 | 8.0 | 14.5 | 0.00 | 0.00 | 0.00 | 80 | 1008.2 |
| 20260903191823 | 26 | 148 | 8.0 | 16.1 | 0.00 | 0.00 | 0.00 | 79 | 1008.1 |
| 20260903191322 | 26 | 139 | 9.7 | 16.1 | 0.00 | 0.00 | 0.00 | 78 | 1007.8 |
| 20260903190821 | 26 | 146 | 8.0 | 16.1 | 0.00 | 0.00 | 0.00 | 77 | 1008.3 |
| 20260903190319 | 26 | 148 | 6.4 | 14.5 | 0.00 | 0.00 | 0.00 | 77 | 1008.5 |
| 20260903190042 | 26 | 152 | 4.8 | 11.3 | 0.00 | 0.00 | 0.00 | 75 | 1008.9 |
| 20260903185320 | 27 | 146 | 3.2 | 9.7 | 0.00 | 0.00 | 0.00 | 74 | 1009.2 |
| 20260903184813 | 27 | 147 | 3.2 | 8.0 | 0.00 | 0.00 | 0.00 | 73 | 1008.8 |
| 20260903184314 | 27 | 155 | 4.8 | 9.7 | 0.00 | 0.00 | 0.00 | 72 | 1009.0 |
| 20260903184038 | 27 | 174 | 4.8 | 11.3 | 0.00 | 0.00 | 0.00 | 71 | 1009.0 |
| 20260903183313 | 27 | 161 | 3.2 | 11.3 | 0.00 | 0.00 | 0.00 | 70 | 1009.0 |
| 20260903182819 | 27 | 83 | 3.2 | 16.1 | 0.00 | 0.00 | 0.00 | 70 | 1009.0 |
| 20260903182313 | 27 | 117 | 3.2 | 16.1 | 0.00 | 0.00 | 0.00 | 69 | 1009.0 |
| 20260903181813 | 27 | 122 | 3.2 | 6.4 | 0.00 | 0.00 | 0.00 | 69 | 1009.0 |
| 20260903181310 | 27 | 146 | 3.2 | 8.0 | 0.00 | 0.00 | 0.00 | 68 | 1009.2 |
| 20260903181031 | 27 | 146 | 3.2 | 11.3 | 0.00 | 0.00 | 0.00 | 68 | 1009.0 |
| 20260903180309 | 27 | 150 | 4.8 | 11.3 | 0.00 | 0.00 | 0.00 | 69 | 1009.2 |
| 20260903175807 | 27 | 127 | 3.2 | 9.7 | 0.00 | 0.00 | 0.00 | 69 | 1008.9 |
| 20260903175309 | 27 | 159 | 3.2 | 9.7 | 0.00 | 0.00 | 0.00 | 69 | 1008.9 |
| 20260903174808 | 27 | 138 | 3.2 | 9.7 | 0.00 | 0.00 | 0.00 | 68 | 1008.9 |
| 20260903174306 | 28 | 153 | 4.8 | 11.3 | 0.00 | 0.00 | 0.00 | 67 | 1008.9 |
| 20260903173808 | 28 | 153 | 4.8 | 12.9 | 0.00 | 0.00 | 0.00 | 67 | 1008.9 |
| 20260903173307 | 28 | 148 | 6.4 | 12.9 | 0.00 | 0.00 | 0.00 | 66 | 1009.0 |
| 20260903172807 | 28 | 197 | 6.4 | 14.5 | 0.00 | 0.00 | 0.00 | 65 | 1009.1 |
| 20260903172307 | 28 | 150 | 6.4 | 14.5 | 0.00 | 0.00 | 0.00 | 66 | 1009.2 |
| 20260903171808 | 28 | 178 | 6.4 | 11.3 | 0.00 | 0.00 | 0.00 | 67 | 1009.4 |
| 20260903171309 | 28 | 108 | 6.4 | 16.1 | 0.00 | 0.00 | 0.00 | 67 | 1009.6 |
| 20260903170803 | 28 | 133 | 4.8 | 16.1 | 0.00 | 0.00 | 0.00 | 67 | 1009.6 |
| 20260903170303 | 28 | 168 | 3.2 | 6.4 | 0.00 | 0.00 | 0.00 | 65 | 1009.7 |
| 20260903165803 | 28 | 147 | 3.2 | 14.5 | 0.00 | 0.00 | 0.00 | 65 | 1009.7 |
| 20260903165305 | 28 | 162 | 4.8 | 14.5 | 0.00 | 0.00 | 0.00 | 64 | 1009.5 |
| 20260903164805 | 28 | 121 | 4.8 | 14.5 | 0.00 | 0.00 | 0.00 | 66 | 1009.6 |
| 20260903164304 | 28 | 130 | 4.8 | 14.5 | 0.00 | 0.00 | 0.00 | 66 | 1009.6 |
| 20260903164024 | 28 | 157 | 4.8 | 12.9 | 0.00 | 0.00 | 0.00 | 67 | 1009.6 |
| 20260903163533 | 28 | 142 | 4.8 | 12.9 | 0.00 | 0.00 | 0.00 | 66 | 1009.6 |
| 20260903162802 | 28 | 167 | 4.8 | 11.3 | 0.00 | 0.00 | 0.00 | 68 | 1009.7 |
| 20260903162306 | 27 | 134 | 4.8 | 11.3 | 0.00 | 0.00 | 0.00 | 71 | 1009.6 |
| 20260903161804 | 27 | 147 | 3.2 | 11.3 | 0.00 | 0.00 | 0.00 | 71 | 1009.5 |
| 20260903161304 | 27 | 132 | 3.2 | 11.3 | 0.00 | 0.00 | 0.00 | 70 | 1009.5 |
| 20260903160805 | 27 | 76 | 3.2 | 11.3 | 0.00 | 0.00 | 0.00 | 69 | 1009.4 |
| 20260903160526 | 27 | 136 | 4.8 | 9.7 | 0.00 | 0.00 | 0.00 | 71 | 1009.5 |
| 20260903155803 | 27 | 98 | 6.4 | 14.5 | 0.00 | 0.00 | 0.00 | 70 | 1009.3 |
| 20260903155306 | 27 | 165 | 6.4 | 14.5 | 0.00 | 0.00 | 0.00 | 70 | 1009.5 |
| 20260903155030 | 27 | 131 | 4.8 | 14.5 | 0.00 | 0.00 | 0.00 | 71 | 1009.5 |
| 20260903154304 | 26 | 132 | 4.8 | 14.5 | 0.00 | 0.00 | 0.00 | 72 | 1009.6 |
| 20260903154029 | 26 | 140 | 4.8 | 12.9 | 0.00 | 0.00 | 0.00 | 72 | 1009.6 |
| 20260903153303 | 26 | 169 | 4.8 | 17.7 | 0.00 | 0.00 | 0.00 | 72 | 1009.7 |
| 20260903153025 | 26 | 139 | 6.4 | 17.7 | 0.00 | 0.00 | 0.00 | 71 | 1009.8 |
| 20260903152524 | 26 | 148 | 4.8 | 12.9 | 0.00 | 0.00 | 0.00 | 71 | 1009.6 |
| 20260903151804 | 26 | 142 | 3.2 | 12.9 | 0.00 | 0.00 | 0.00 | 70 | 1009.5 |
| 20260903151524 | 26 | 154 | 3.2 | 9.7 | 0.00 | 0.00 | 0.00 | 71 | 1009.4 |
| 20260903150804 | 27 | 120 | 3.2 | 9.7 | 0.00 | 0.00 | 0.00 | 69 | 1009.3 |
| 20260903150303 | 27 | 151 | 3.2 | 11.3 | 0.00 | 0.00 | 0.00 | 69 | 1009.4 |
| 20260903145801 | 27 | 175 | 3.2 | 11.3 | 0.00 | 0.00 | 0.00 | 69 | 1009.4 |
| 20260903145300 | 27 | 138 | 4.8 | 12.9 | 0.00 | 0.00 | 0.00 | 70 | 1009.5 |
| 20260903144801 | 27 | 128 | 4.8 | 12.9 | 0.00 | 0.00 | 0.00 | 71 | 1009.4 |
| 20260903144528 | 26 | 156 | 4.8 | 11.3 | 0.00 | 0.00 | 0.00 | 71 | 1009.4 |
| 20260903143800 | 26 | 141 | 4.8 | 11.3 | 0.00 | 0.00 | 0.00 | 73 | 1009.5 |
| 20260903143301 | 25 | 137 | 3.2 | 8.0 | 0.00 | 0.00 | 0.00 | 73 | 1009.6 |
| 20260903142801 | 25 | 88 | 3.2 | 8.0 | 0.00 | 0.00 | 0.00 | 75 | 1009.5 |
| 20260903142300 | 25 | 163 | 3.2 | 8.0 | 0.00 | 0.00 | 0.00 | 76 | 1009.4 |
| 20260903141801 | 25 | 149 | 3.2 | 8.0 | 0.00 | 0.00 | 0.00 | 76 | 1009.4 |
| 20260903141519 | 25 | 159 | 3.2 | 8.0 | 0.00 | 0.00 | 0.00 | 77 | 1009.4 |
| 20260903140759 | 24 | 143 | 3.2 | 8.0 | 0.00 | 0.00 | 0.00 | 79 | 1009.5 |
| 20260903140259 | 24 | 132 | 3.2 | 8.0 | 0.00 | 0.00 | 0.00 | 79 | 1009.6 |
| 20260903135800 | 23 | 145 | 4.8 | 9.7 | 0.00 | 0.00 | 0.00 | 80 | 1009.6 |
| 20260903135258 | 23 | 142 | 4.8 | 11.3 | 0.00 | 0.00 | 0.00 | 80 | 1009.8 |
| 20260903135015 | 23 | 148 | 3.2 | 11.3 | 0.00 | 0.00 | 0.00 | 82 | 1009.8 |
| 20260903134257 | 23 | 147 | 1.6 | 8.0 | 0.00 | 0.00 | 0.00 | 83 | 1009.7 |
| 20260903133756 | 23 | 268 | 3.2 | 9.7 | 0.00 | 0.00 | 0.00 | 84 | 1009.8 |
| 20260903133252 | 23 | 182 | 3.2 | 9.7 | 0.00 | 0.00 | 0.00 | 84 | 1009.9 |
| 20260903132753 | 23 | 184 | 1.6 | 8.0 | 0.00 | 0.00 | 0.00 | 84 | 1009.8 |
| 20260903132252 | 23 | 121 | 3.2 | 12.9 | 0.00 | 0.00 | 0.00 | 85 | 1009.8 |
| 20260903132016 | 22 | 151 | 4.8 | 12.9 | 0.00 | 0.00 | 0.00 | 86 | 1009.7 |
| 20260903131250 | 22 | 140 | 4.8 | 16.1 | 0.00 | 0.00 | 0.00 | 87 | 1009.6 |
| 20260903130749 | 22 | 132 | 4.8 | 16.1 | 0.00 | 0.00 | 0.00 | 87 | 1009.6 |
| 20260903130247 | 22 | 142 | 4.8 | 9.7 | 0.00 | 0.00 | 0.00 | 88 | 1009.7 |
| 20260903125744 | 22 | 163 | 4.8 | 9.7 | 0.00 | 0.00 | 0.00 | 89 | 1009.5 |
| 20260903125505 | 22 | 150 | 3.2 | 8.0 | 0.00 | 0.00 | 0.00 | 89 | 1009.4 |
| 20260903124743 | 22 | 140 | 3.2 | 8.0 | 0.00 | 0.00 | 0.00 | 89 | 1009.4 |
| 20260903124243 | 22 | 81 | 1.6 | 8.0 | 0.00 | 0.00 | 0.00 | 88 | 1009.4 |
| 20260903123743 | 22 | 118 | 1.6 | 4.8 | 0.00 | 0.00 | 0.00 | 88 | 1009.2 |
| 20260903123243 | 22 | 119 | 1.6 | 4.8 | 0.00 | 0.00 | 0.00 | 89 | 1009.2 |
| 20260903122743 | 22 | 123 | 1.6 | 6.4 | 0.00 | 0.00 | 0.00 | 89 | 1009.2 |
| 20260903122242 | 22 | 148 | 1.6 | 6.4 | 0.00 | 0.00 | 0.00 | 89 | 1009.2 |
| 20260903122013 | 23 | 144 | 3.2 | 8.0 | 0.00 | 0.00 | 0.00 | 89 | 1009.2 |
| 20260903121243 | 23 | 144 | 3.2 | 8.0 | 0.00 | 0.00 | 0.00 | 89 | 1009.2 |
| 20260903121004 | 23 | 152 | 1.6 | 4.8 | 0.00 | 0.00 | 0.00 | 89 | 1009.2 |
| 20260903120243 | 23 | 165 | 1.6 | 14.5 | 0.00 | 0.00 | 0.00 | 90 | 1009.3 |
| 20260903115744 | 23 | 196 | 3.2 | 14.5 | 0.00 | 0.00 | 0.00 | 90 | 1009.6 |
| 20260903115243 | 22 | 145 | 3.2 | 11.3 | 0.00 | 0.00 | 0.00 | 90 | 1009.4 |
| 20260903114747 | 22 | 170 | 3.2 | 8.0 | 0.00 | 0.00 | 0.00 | 90 | 1009.5 |
| 20260903114241 | 22 | 144 | 3.2 | 12.9 | 0.00 | 0.00 | 0.00 | 90 | 1009.5 |
| 20260903113734 | 22 | 153 | 3.2 | 12.9 | 0.00 | 0.00 | 0.00 | 90 | 1009.4 |
| 20260903113236 | 22 | 148 | 3.2 | 8.0 | 0.00 | 0.00 | 0.00 | 90 | 1009.3 |
| 20260903112733 | 22 | 161 | 3.2 | 8.0 | 0.00 | 0.00 | 0.00 | 90 | 1009.5 |
| 20260903112233 | 22 | 148 | 3.2 | 8.0 | 0.00 | 0.00 | 0.00 | 90 | 1009.3 |
| 20260903111730 | 22 | 115 | 3.2 | 6.4 | 0.00 | 0.00 | 0.00 | 90 | 1009.3 |
| 20260903111229 | 22 | 157 | 3.2 | 8.0 | 0.00 | 0.00 | 0.00 | 90 | 1009.4 |
| 20260903110727 | 22 | 156 | 3.2 | 8.0 | 0.00 | 0.00 | 0.00 | 90 | 1009.4 |
| 20260903110227 | 22 | 144 | 3.2 | 11.3 | 0.00 | 0.00 | 0.00 | 90 | 1009.4 |
| 20260903105728 | 22 | 144 | 3.2 | 14.5 | 0.00 | 0.00 | 0.00 | 90 | 1009.5 |
| 20260903105224 | 22 | 159 | 4.8 | 14.5 | 0.00 | 0.00 | 0.00 | 90 | 1009.7 |
| 20260903104726 | 22 | 161 | 4.8 | 11.3 | 0.00 | 0.00 | 0.00 | 90 | 1009.8 |
| 20260903104441 | 22 | 169 | 3.2 | 11.3 | 0.00 | 0.00 | 0.00 | 90 | 1009.6 |
| 20260903103721 | 22 | 171 | 3.2 | 9.7 | 0.00 | 0.00 | 0.00 | 90 | 1009.5 |
| 20260903103221 | 22 | 146 | 3.2 | 6.4 | 0.00 | 0.00 | 0.00 | 90 | 1009.6 |
| 20260903102722 | 22 | 69 | 3.2 | 6.4 | 0.00 | 0.00 | 0.00 | 89 | 1009.5 |
| 20260903102221 | 22 | 137 | 3.2 | 6.4 | 0.00 | 0.00 | 0.00 | 89 | 1009.4 |
| 20260903101751 | 22 | 155 | 3.2 | 8.0 | 0.00 | 0.00 | 0.00 | 89 | 1009.5 |
| 20260903101214 | 22 | 146 | 1.6 | 8.0 | 0.00 | 0.00 | 0.00 | 89 | 1009.5 |
| 20260903100715 | 22 | 158 | 1.6 | 6.4 | 0.00 | 0.00 | 0.00 | 89 | 1009.4 |
| 20260903100425 | 22 | 78 | 1.6 | 4.8 | 0.00 | 0.00 | 0.00 | 89 | 1009.3 |
| 20260903100316 | 22 | 146 | 1.6 | 4.8 | 0.00 | 0.00 | 0.00 | 89 | 1009.4 |
| 20260903095215 | 22 | 98 | 1.6 | 4.8 | 0.00 | 0.00 | 0.00 | 88 | 1009.3 |
| 20260903094716 | 22 | 100 | 0.0 | 4.8 | 0.00 | 0.00 | 0.00 | 88 | 1009.2 |
| 20260903094217 | 23 | 94 | 1.6 | 3.2 | 0.00 | 0.00 | 0.00 | 88 | 1009.2 |
| 20260903093713 | 23 | 88 | 1.6 | 3.2 | 0.00 | 0.00 | 0.00 | 88 | 1009.1 |
| 20260903093429 | 23 | 88 | 0.0 | 3.2 | 0.00 | 0.00 | 0.00 | 88 | 1009.3 |
| 20260903092709 | 23 | 90 | 0.0 | 4.8 | 0.00 | 0.00 | 0.00 | 88 | 1009.3 |
| 20260903092209 | 23 | 90 | 1.6 | 8.0 | 0.00 | 0.00 | 0.00 | 88 | 1009.3 |
| 20260903091930 | 23 | 73 | 3.2 | 9.7 | 0.00 | 0.00 | 0.00 | 87 | 1009.3 |
| 20260903091209 | 23 | 80 | 3.2 | 9.7 | 0.00 | 0.00 | 0.00 | 87 | 1009.2 |
| 20260903090933 | 23 | 87 | 3.2 | 8.0 | 0.00 | 0.00 | 0.00 | 87 | 1009.1 |
| 20260903090431 | 23 | 42 | 3.2 | 9.7 | 0.00 | 0.00 | 0.00 | 87 | 1009.0 |
| 20260903085722 | 23 | 70 | 4.8 | 11.3 | 0.00 | 0.00 | 0.00 | 87 | 1009.0 |
| 20260903085209 | 23 | 153 | 3.2 | 11.3 | 0.00 | 0.00 | 0.00 | 86 | 1009.1 |
| 20260903084710 | 23 | 81 | 3.2 | 8.0 | 0.00 | 0.00 | 0.00 | 86 | 1009.2 |
| 20260903084211 | 23 | 76 | 1.6 | 8.0 | 0.00 | 0.00 | 0.00 | 86 | 1009.2 |
| 20260903083710 | 23 | 80 | 1.6 | 6.4 | 0.00 | 0.00 | 0.00 | 86 | 1009.3 |
| 20260903083210 | 23 | 76 | 3.2 | 6.4 | 0.00 | 0.00 | 0.00 | 85 | 1009.2 |
| 20260903082709 | 23 | 77 | 3.2 | 6.4 | 0.00 | 0.00 | 0.00 | 85 | 1009.2 |
| 20260903082210 | 23 | 74 | 3.2 | 12.9 | 0.00 | 0.00 | 0.00 | 85 | 1009.4 |
| 20260903081707 | 23 | 79 | 4.8 | 12.9 | 0.00 | 0.00 | 0.00 | 85 | 1009.2 |
| 20260903081207 | 23 | 89 | 4.8 | 14.5 | 0.00 | 0.00 | 0.00 | 85 | 1009.2 |
| 20260903080710 | 23 | 80 | 4.8 | 14.5 | 0.00 | 0.00 | 0.00 | 85 | 1009.2 |
| 20260903080206 | 23 | 86 | 4.8 | 9.7 | 0.00 | 0.00 | 0.00 | 85 | 1009.3 |
| 20260903075703 | 23 | 87 | 3.2 | 9.7 | 0.00 | 0.00 | 0.00 | 85 | 1009.5 |
| 20260903075422 | 23 | 69 | 4.8 | 9.7 | 0.00 | 0.00 | 0.00 | 84 | 1009.5 |
| 20260903074658 | 23 | 87 | 4.8 | 9.7 | 0.00 | 0.00 | 0.00 | 84 | 1009.5 |
| 20260903074200 | 23 | 86 | 4.8 | 9.7 | 0.00 | 0.00 | 0.00 | 84 | 1009.5 |
| 20260903073653 | 23 | 69 | 4.8 | 9.7 | 0.00 | 0.00 | 0.00 | 84 | 1009.5 |
| 20260903073148 | 23 | 88 | 3.2 | 9.7 | 0.00 | 0.03 | 0.00 | 83 | 1009.5 |
| 20260903072649 | 23 | 76 | 4.8 | 9.7 | 0.00 | 0.03 | 0.00 | 83 | 1009.6 |
| 20260903072640 | 23 | 74 | 4.8 | 9.7 | 0.00 | 0.03 | 0.00 | 83 | 1009.5 |
| 20260903071646 | 23 | 65 | 4.8 | 11.3 | 0.00 | 0.05 | 0.00 | 83 | 1009.6 |
| 20260903071414 | 24 | 84 | 4.8 | 11.3 | 0.00 | 0.08 | 0.00 | 82 | 1009.7 |
| 20260903070647 | 24 | 71 | 4.8 | 9.7 | 0.00 | 0.08 | 0.00 | 82 | 1009.7 |
| 20260903070147 | 24 | 80 | 4.8 | 9.7 | 0.00 | 0.10 | 0.00 | 82 | 1009.8 |
| 20260903065648 | 24 | 90 | 4.8 | 9.7 | 0.00 | 0.10 | 0.00 | 82 | 1009.9 |
| 20260903065148 | 24 | 76 | 4.8 | 9.7 | 0.00 | 0.10 | 0.00 | 82 | 1009.8 |
| 20260903064647 | 24 | 78 | 4.8 | 9.7 | 0.00 | 0.10 | 0.00 | 81 | 1009.8 |
| 20260903064145 | 24 | 94 | 3.2 | 8.0 | 0.00 | 0.10 | 0.00 | 81 | 1009.7 |
| 20260903063646 | 24 | 85 | 1.6 | 9.7 | 0.00 | 0.10 | 0.00 | 81 | 1009.7 |
| 20260903063145 | 24 | 88 | 3.2 | 9.7 | 0.00 | 0.10 | 0.00 | 81 | 1009.8 |
| 20260903063130 | 24 | 90 | 4.8 | 9.7 | 0.00 | 0.10 | 0.00 | 80 | 1009.8 |
| 20260903062139 | 24 | 83 | 4.8 | 9.7 | 0.00 | 0.10 | 0.00 | 80 | 1009.9 |
| 20260903061641 | 25 | 79 | 4.8 | 9.7 | 0.00 | 0.10 | 0.00 | 80 | 1009.9 |
| 20260903061123 | 25 | 84 | 4.8 | 11.3 | 0.00 | 0.10 | 0.00 | 79 | 1009.9 |
| 20260903060623 | 25 | 65 | 4.8 | 12.9 | 0.00 | 0.10 | 0.00 | 79 | 1010.0 |
| 20260903060124 | 25 | 88 | 4.8 | 14.5 | 0.00 | 0.10 | 0.00 | 79 | 1009.9 |
| 20260903055624 | 25 | 79 | 4.8 | 14.5 | 0.00 | 0.10 | 0.00 | 79 | 1009.9 |
| 20260903055123 | 25 | 92 | 4.8 | 11.3 | 0.00 | 0.10 | 0.00 | 79 | 1009.9 |
| 20260903054622 | 25 | 72 | 4.8 | 11.3 | 0.00 | 0.10 | 0.00 | 78 | 1009.9 |
| 20260903054123 | 25 | 77 | 4.8 | 11.3 | 0.00 | 0.10 | 0.00 | 78 | 1009.9 |
| 20260903053623 | 25 | 92 | 6.4 | 12.9 | 0.00 | 0.10 | 0.00 | 78 | 1009.9 |
| 20260903053123 | 25 | 62 | 6.4 | 16.1 | 0.00 | 0.10 | 0.00 | 78 | 1009.8 |
| 20260903052624 | 25 | 97 | 6.4 | 16.1 | 0.00 | 0.10 | 0.00 | 78 | 1009.8 |
| 20260903052346 | 25 | 76 | 4.8 | 14.5 | 0.00 | 0.10 | 0.00 | 77 | 1009.8 |
| 20260903051847 | 25 | 86 | 4.8 | 12.9 | 0.00 | 0.10 | 0.00 | 77 | 1009.9 |
| 20260903051114 | 25 | 86 | 6.4 | 11.3 | 0.00 | 0.10 | 0.00 | 77 | 1009.9 |
| 20260903050613 | 25 | 79 | 6.4 | 12.9 | 0.00 | 0.10 | 0.00 | 77 | 1009.9 |
| 20260903050110 | 25 | 84 | 6.4 | 12.9 | 0.00 | 0.10 | 0.00 | 76 | 1009.9 |
| 20260903045611 | 25 | 73 | 6.4 | 11.3 | 0.00 | 0.10 | 0.10 | 76 | 1010.0 |
| 20260903045113 | 25 | 90 | 6.4 | 11.3 | 0.00 | 0.10 | 0.10 | 76 | 1010.2 |
| 20260903044612 | 25 | 80 | 6.4 | 12.9 | 0.00 | 0.10 | 0.10 | 76 | 1010.0 |
| 20260903044330 | 25 | 78 | 6.4 | 14.5 | 0.00 | 0.10 | 0.10 | 75 | 1010.0 |
| 20260903043611 | 25 | 95 | 6.4 | 14.5 | 0.00 | 0.10 | 0.10 | 75 | 1010.2 |
| 20260903043331 | 25 | 60 | 6.4 | 11.3 | 0.00 | 0.10 | 0.10 | 75 | 1010.3 |
| 20260903043055 | 25 | 86 | 4.8 | 11.3 | 0.00 | 0.10 | 0.10 | 75 | 1010.3 |
| 20260903042122 | 26 | 82 | 4.8 | 12.9 | 0.00 | 0.10 | 0.10 | 75 | 1010.3 |
| 20260903041829 | 26 | 87 | 6.4 | 12.9 | 0.00 | 0.10 | 0.10 | 75 | 1010.2 |
| 20260903041108 | 26 | 83 | 6.4 | 11.3 | 0.00 | 0.10 | 0.10 | 75 | 1010.2 |
| 20260903040608 | 26 | 87 | 6.4 | 14.5 | 0.00 | 0.10 | 0.10 | 75 | 1010.3 |
| 20260903040119 | 26 | 82 | 8.0 | 16.1 | 0.00 | 0.10 | 0.10 | 75 | 1010.3 |
| 20260903035601 | 26 | 88 | 8.0 | 17.7 | 0.00 | 0.10 | 0.10 | 75 | 1010.3 |
| 20260903035054 | 26 | 100 | 8.0 | 17.7 | 0.00 | 0.10 | 0.10 | 75 | 1010.4 |
| 20260903034552 | 26 | 77 | 6.4 | 16.1 | 0.00 | 0.10 | 0.10 | 75 | 1010.4 |
| 20260903034049 | 26 | 90 | 6.4 | 16.1 | 0.00 | 0.10 | 0.10 | 75 | 1010.4 |
| 20260903033547 | 26 | 150 | 4.8 | 16.1 | 0.00 | 0.10 | 0.10 | 74 | 1010.4 |
| 20260903033048 | 26 | 64 | 4.8 | 14.5 | 0.00 | 0.10 | 0.10 | 74 | 1010.4 |